Bryce Canyon, UT

11:48 PM MDT on October 22, 2019 (GMT -0600)
Bryce Canyon

Weather History for KBCE - August, 2019

Change the Weather History Date:

Tuesday, August 6, 2019

  Actual Average Record
Temperature  
Mean Temperature 66 °F -  
Max Temperature 82 °F 79 °F 90 °F (1981)
Min Temperature 51 °F 46 °F 34 °F (1978)
Cooling Degree Days 1    
Growing Degree Days 16 (Base 50)    
Moisture  
Dew Point 49 °F    
Average Humidity 58    
Maximum Humidity 86    
Minimum Humidity 28    
Precipitation  
Precipitation 0.00 in - - ()
Sea Level Pressure  
Sea Level Pressure 30.02 in    
Wind  
Wind Speed 7 mph (WNW)    
Max Wind Speed 13 mph    
Max Gust Speed 21 mph    
Visibility 10 miles    
Events Rain , Thunderstorm    
Averages and records for this station are not official NWS values.
T = Trace of Precipitation, MM = Missing Value Source: NWS Daily Summary

Daily Weather History Graph

Daily Weather History Graph

Search for Another Location

Airport or City:

Astronomy

Aug. 06, 2019 Rise Set
Actual Time 6:36 AM MDT 8:32 PM MDT
Civil Twilight 6:07 AM MDT 9:00 PM MDT
Nautical Twilight 5:32 AM MDT 9:35 PM MDT
Astronomical Twilight 4:55 AM MDT 10:12 PM MDT
Moon 12:58 PM MDT (8/6) No Moon Set
Length of Visible Light 14h 52m
Length of Day
13h 55m
Waxing Crescent, 39% of the Moon is Illuminated
Aug 6
Waxing Crescent
Aug 7
First Quarter
Aug 15
Full
Aug 23
Last Quarter
Aug 30
New

Hourly Weather History & Observations

Time (MDT) Temp. Dew Point Humidity Pressure Visibility Wind Dir Wind Speed Gust Speed Precip Events Conditions
12:53 AM 59.0 °F 52.0 °F 78% 30.02 in 10.0 mi WSW 8.1 mph - N/A   Clear
1:53 AM 55.9 °F 51.1 °F 84% 30.03 in 10.0 mi West 6.9 mph - N/A   Clear
2:53 AM 55.0 °F 50.0 °F 83% 29.98 in 10.0 mi WSW 8.1 mph - N/A   Clear
3:53 AM 54.0 °F 48.0 °F 80% 29.98 in 10.0 mi West 8.1 mph - N/A   Clear
4:53 AM 52.0 °F 48.0 °F 86% 29.98 in 10.0 mi West 5.8 mph - N/A   Clear
5:53 AM 51.1 °F 46.9 °F 86% 29.99 in 10.0 mi West 6.9 mph - N/A   Clear
6:53 AM 52.0 °F 46.0 °F 80% 30.01 in 10.0 mi West 9.2 mph - N/A   Clear
7:53 AM 57.0 °F 48.0 °F 72% 30.01 in 10.0 mi NW 3.5 mph - N/A   Clear
8:53 AM 66.0 °F 48.9 °F 54% 30.01 in 10.0 mi North 3.5 mph - N/A   Clear
9:53 AM 73.0 °F 53.1 °F 49% 29.97 in 10.0 mi NE 4.6 mph - N/A   Clear
10:53 AM 79.0 °F 44.1 °F 29% 29.96 in 10.0 mi Variable 3.5 mph - N/A   Clear
11:53 AM 81.0 °F 45.0 °F 28% 29.96 in 10.0 mi Variable 3.5 mph - N/A   Mostly Cloudy
12:07 PM 80.1 °F 46.0 °F 30% 30.38 in 10.0 mi SSE 8.1 mph - N/A Thunderstorm Mostly Cloudy
12:22 PM 78.1 °F 46.0 °F 32% 30.38 in 10.0 mi Variable 6.9 mph - N/A   Mostly Cloudy
12:53 PM 73.9 °F 48.0 °F 40% 30.00 in 10.0 mi SSE 10.4 mph 20.7 mph N/A   Overcast
1:53 PM 71.1 °F 48.9 °F 45% 30.02 in 10.0 mi SSW 12.7 mph - 0.00 in   Mostly Cloudy
2:53 PM 72.0 °F 48.0 °F 43% 30.04 in 10.0 mi West 5.8 mph - N/A   Overcast
3:53 PM 70.0 °F 48.9 °F 47% 30.04 in 10.0 mi NNW 6.9 mph - 0.00 in   Mostly Cloudy
4:54 PM 72.0 °F 50.0 °F 46% 30.02 in 10.0 mi NNE 9.2 mph - 0.00 in   Unknown
5:53 PM 72.0 °F 51.1 °F 48% 30.00 in 10.0 mi North 6.9 mph - N/A   Partly Cloudy
6:53 PM 71.1 °F 48.9 °F 45% 29.99 in 10.0 mi North 8.1 mph - N/A   Mostly Cloudy
7:53 PM 66.9 °F 51.1 °F 57% 29.99 in 10.0 mi NE 9.2 mph - N/A   Mostly Cloudy
8:53 PM 64.9 °F 51.1 °F 61% 29.96 in 10.0 mi NE 8.1 mph - N/A   Overcast
9:53 PM 62.1 °F 53.1 °F 72% 29.95 in 10.0 mi West 4.6 mph - N/A   Mostly Cloudy
10:53 PM 66.0 °F 48.9 °F 54% 29.94 in 10.0 mi Variable 4.6 mph - 0.00 in   Overcast
11:53 PM 62.1 °F 53.1 °F 72% 29.95 in 10.0 mi WNW 4.6 mph - 0.00 in Rain Light Rain